Location: Allaines
(49.9632°N, 2.9458°E)
Time: 01:56:48
(UTC+00:00)

Cosmos 2221 - Pass Details

Date: 09 April 2020
Orbit: 592 x 616 km, 82.5° (Epoch: 03 June)

Event Time Altitude Azimuth Distance (km) Brightness Sun altitude
Exits shadow 21:46:36 25° 44° (NE) 1,241 4.2 -26.2°
Drops below altitude 10° 21:48:47 10° 24° (NNE) 1,982 5.5 -26.4°
Sets 21:51:07 0° 17° (NNE) 2,888 6.5 -26.6°
